Le nostre stazioni meteo in Italia

Pubblicità
Il mio iltempo24.it
Edinburgh, Gran Bretagna (3160): Temperatura & dewpoint: 08.11.2019 09:00:00 - 14.11.2019 09:00:00 (GMT)Edinburgh, Gran Bretagna (3160): velocità del vento: 08.11.2019 09:00:00 - 14.11.2019 09:00:00 (GMT)Edinburgh, Gran Bretagna (3160): direzione del vento: 08.11.2019 09:00:00 - 14.11.2019 09:00:00 (GMT)Edinburgh, Gran Bretagna (3160): visibility: 08.11.2019 09:00:00 - 14.11.2019 09:00:00 (GMT)
Data & Tempo tt [°C] td [°C] ff [km/h] ff [kn] dd vv [km]
14.11.2019 09:00:00 0,0 -1,0 2 1 SO 10
14.11.2019 08:00:00 -1,0 -3,0 2 1 - 10
14.11.2019 07:00:00 0,0 -2,0 4 2 - 10
14.11.2019 06:00:00 -1,0 -2,0 2 1 - 10
14.11.2019 05:00:00 0,0 -2,0 4 2 OSO 10
14.11.2019 04:00:00 1,0 -1,0 5 3 - 10
14.11.2019 03:00:00 3,0 0,0 11 6 NNE 10
14.11.2019 02:00:00 3,0 0,0 13 7 NNE 10
14.11.2019 01:00:00 3,0 1,0 15 8 NNE 10
14.11.2019 00:00:00 3,0 2,0 8 4 NE 10
13.11.2019 23:00:00 2,0 2,0 4 2 - 10
13.11.2019 22:00:00 1,0 1,0 13 7 NE 10
13.11.2019 21:00:00 -1,0 -1,0 4 2 - 10
13.11.2019 20:00:00 -1,0 -1,0 2 1 NNO 10
13.11.2019 19:00:00 0,0 0,0 2 1 - 10
13.11.2019 18:00:00 1,0 0,0 4 2 - 10
13.11.2019 17:00:00 2,0 1,0 5 3 - 10
13.11.2019 16:00:00 2,0 1,0 9 5 E 10
13.11.2019 15:00:00 4,0 3,0 9 5 NE 9
13.11.2019 14:00:00 3,0 2,0 5 3 NE 10
13.11.2019 13:00:00 2,0 1,0 4 2 - 10
13.11.2019 12:00:00 1,0 1,0 4 2 ENE 10
13.11.2019 11:00:00 0,0 0,0 4 2 NNO 10
13.11.2019 10:00:00 -1,0 -1,0 4 2 - 10
13.11.2019 09:00:00 -2,0 -2,0 2 1 - 10
13.11.2019 08:00:00 -3,0 -3,0 5 3 - 10
13.11.2019 07:00:00 -3,0 -3,0 4 2 - 10
13.11.2019 06:00:00 -3,0 -3,0 0 0 N 10
13.11.2019 05:00:00 -3,0 -3,0 4 2 SSO 10
13.11.2019 04:00:00 -2,0 -3,0 8 4 OSO 10
13.11.2019 03:00:00 -2,0 -2,0 8 4 OSO 10
13.11.2019 02:00:00 -1,0 -1,0 5 3 OSO 10
13.11.2019 01:00:00 -1,0 -1,0 5 3 - 10
13.11.2019 00:00:00 -2,0 -2,0 2 1 - 10
12.11.2019 23:00:00 1,0 0,0 5 3 SO 10
12.11.2019 22:00:00 1,0 0,0 2 1 - 10
12.11.2019 21:00:00 2,0 1,0 5 3 O 10
12.11.2019 20:00:00 3,0 0,0 5 3 - 10
12.11.2019 19:00:00 6,0 1,0 8 4 NO 10
12.11.2019 18:00:00 7,0 2,0 13 7 NNO 10
12.11.2019 17:00:00 7,0 3,0 8 4 NO 10
12.11.2019 16:00:00 8,0 3,0 13 7 NNO 10
12.11.2019 15:00:00 8,0 4,0 13 7 NNO 10
12.11.2019 14:00:00 8,0 4,0 11 6 NO 10
12.11.2019 13:00:00 8,0 4,0 13 7 NO 10
12.11.2019 12:00:00 9,0 5,0 16 9 NNO 10
12.11.2019 11:00:00 8,0 5,0 13 7 NNO 10
12.11.2019 10:00:00 8,0 4,0 13 7 NO 10
12.11.2019 09:00:00 6,0 4,0 11 6 ONO 10
12.11.2019 08:00:00 6,0 4,0 11 6 NO 10
12.11.2019 07:00:00 5,0 3,0 15 8 ONO 10
12.11.2019 06:00:00 4,0 3,0 11 6 O 10
12.11.2019 05:00:00 1,0 1,0 11 6 OSO 10
12.11.2019 04:00:00 2,0 2,0 11 6 OSO 10
12.11.2019 03:00:00 3,0 2,0 11 6 OSO 10
12.11.2019 02:00:00 3,0 3,0 8 4 O 10
12.11.2019 01:00:00 5,0 3,0 8 4 O 10
12.11.2019 00:00:00 5,0 3,0 11 6 O 10
11.11.2019 23:00:00 5,0 4,0 11 6 O 10
11.11.2019 22:00:00 5,0 3,0 15 8 O 10
11.11.2019 21:00:00 5,0 4,0 18 10 O 10
11.11.2019 20:00:00 6,0 3,0 21 11 O 10
11.11.2019 19:00:00 6,0 4,0 21 11 OSO 10
11.11.2019 18:00:00 5,0 4,0 16 9 OSO 10
11.11.2019 17:00:00 6,0 4,0 15 8 O 10
11.11.2019 16:00:00 6,0 4,0 13 7 O 10
11.11.2019 15:00:00 6,0 5,0 15 8 O 10
11.11.2019 14:00:00 5,0 4,0 11 6 O 10
11.11.2019 13:00:00 5,0 4,0 16 9 O 10
11.11.2019 12:00:00 6,0 5,0 22 12 O 7
11.11.2019 11:00:00 6,0 5,0 21 11 SO 9
11.11.2019 10:00:00 - - - - - -
11.11.2019 09:00:00 6,0 4,0 29 16 SO 10
11.11.2019 08:00:00 5,0 4,0 18 10 OSO 10
11.11.2019 07:00:00 6,0 5,0 18 10 OSO 10
11.11.2019 06:00:00 5,0 5,0 16 9 SO 10
11.11.2019 05:00:00 4,0 3,0 4 2 - 10
11.11.2019 04:00:00 - - - - - -
11.11.2019 03:00:00 - - - - - -
11.11.2019 02:00:00 - - - - - -
11.11.2019 01:00:00 - - - - - -
11.11.2019 00:00:00 3,0 3,0 15 8 ESE 10
10.11.2019 23:00:00 4,0 3,0 8 4 ESE 10
10.11.2019 22:00:00 3,0 2,0 11 6 E 10
10.11.2019 21:00:00 4,0 1,0 13 7 E 10
10.11.2019 20:00:00 3,0 2,0 9 5 ESE 10
10.11.2019 19:00:00 3,0 1,0 8 4 SE 10
10.11.2019 18:00:00 3,0 1,0 4 2 - 10
10.11.2019 17:00:00 4,0 1,0 5 3 - 10
10.11.2019 16:00:00 3,0 0,0 8 4 ENE 10
10.11.2019 15:00:00 5,0 1,0 4 2 NE 10
10.11.2019 14:00:00 5,0 0,0 5 3 - 10
10.11.2019 13:00:00 4,0 0,0 4 2 O 10
10.11.2019 12:00:00 3,0 1,0 9 5 O 10
10.11.2019 11:00:00 2,0 0,0 5 3 - 10
10.11.2019 10:00:00 1,0 -1,0 5 3 O 10
10.11.2019 09:00:00 0,0 -1,0 11 6 SO 10
10.11.2019 08:00:00 0,0 -1,0 11 6 OSO 10
10.11.2019 07:00:00 0,0 -1,0 13 7 OSO 10
10.11.2019 06:00:00 0,0 -2,0 8 4 O 10
10.11.2019 05:00:00 0,0 -1,0 8 4 OSO 10
10.11.2019 04:00:00 - - - - - -
10.11.2019 03:00:00 - - - - - -
10.11.2019 02:00:00 - - - - - -
10.11.2019 01:00:00 - - - - - -
10.11.2019 00:00:00 4,0 1,0 9 5 N 10
09.11.2019 23:00:00 4,0 1,0 11 6 NNE 10
09.11.2019 22:00:00 4,0 2,0 11 6 NNE 10
09.11.2019 21:00:00 3,0 2,0 4 2 - 10
09.11.2019 20:00:00 3,0 2,0 2 1 NO 10
09.11.2019 19:00:00 4,0 2,0 5 3 - 10
09.11.2019 18:00:00 5,0 2,0 16 9 ESE 10
09.11.2019 17:00:00 5,0 1,0 16 9 E 10
09.11.2019 16:00:00 5,0 1,0 15 8 E 10
09.11.2019 15:00:00 6,0 0,0 9 5 E 10
09.11.2019 14:00:00 6,0 0,0 11 6 E 10
09.11.2019 13:00:00 7,0 0,0 13 7 ESE 10
09.11.2019 12:00:00 4,0 0,0 11 6 E 10
09.11.2019 11:00:00 4,0 0,0 16 9 E 10
09.11.2019 10:00:00 3,0 0,0 11 6 E 10
09.11.2019 09:00:00 2,0 -1,0 13 7 E 10
09.11.2019 08:00:00 1,0 -1,0 13 7 E 10
09.11.2019 07:00:00 -1,0 -1,0 8 4 E 10
09.11.2019 06:00:00 -3,0 -3,0 2 1 OSO 5
09.11.2019 05:00:00 -3,0 -3,0 2 1 O 10
09.11.2019 04:00:00 - - - - - -
09.11.2019 03:00:00 -3,0 -3,0 2 1 E 10
09.11.2019 02:00:00 -3,0 -3,0 4 2 O 6
09.11.2019 01:00:00 -3,0 -3,0 5 3 S 10
09.11.2019 00:00:00 -2,0 -2,0 8 4 OSO 10
08.11.2019 23:00:00 -2,0 -2,0 5 3 OSO 10
08.11.2019 22:00:00 -1,0 -1,0 4 2 OSO 10
08.11.2019 21:00:00 0,0 -1,0 5 3 - 10
08.11.2019 20:00:00 0,0 -1,0 4 2 - 10
08.11.2019 19:00:00 1,0 0,0 4 2 - 10
08.11.2019 18:00:00 3,0 1,0 2 1 - 10
08.11.2019 17:00:00 4,0 2,0 4 2 N 10
08.11.2019 16:00:00 6,0 2,0 4 2 N 10
08.11.2019 15:00:00 6,0 2,0 8 4 NNE 10
08.11.2019 14:00:00 6,0 1,0 5 3 - 10
08.11.2019 13:00:00 6,0 1,0 8 4 N 10
08.11.2019 12:00:00 5,0 1,0 5 3 - 10
08.11.2019 11:00:00 4,0 0,0 8 4 O 10
08.11.2019 10:00:00 3,0 0,0 9 5 OSO 10
08.11.2019 09:00:00 1,0 -1,0 5 3 - 10

tt = Temperatura
td = dewpoint
ff = velocità del vento
dd = direzione del vento
vv = visibility

Stazioni seguenti

WeatherPro
AMSI
MeteoEarth